レモン彗星

C/2016 X1 ( Lemmon )

English version
Home page
Updated on March 25, 2017

---------------------------------------------------------------------

・ プロフィール

発見日 2016年12月8日
発見光度 20.1等
発見者 G. J. Leonard (Mount Lemmon)

・ 写真集

・ 軌道要素

Epoch 2019 Apr. 27.0 TT = JDT 2458600.5
T 2019 Apr. 30.74707 TT                                 MPCW
q   7.5406043            (2000.0)            P               Q
z  -0.0003620      Peri.  224.83133     -0.44719601     -0.78267047
 +/-0.0003508      Node   256.42871     +0.89330087     -0.36644083
e   1.0027299      Incl.   26.44779     +0.04504766     -0.50313821
From 43 observations 2016 Nov. 26-2017 Feb. 16, mean residual 0".7.

・ 光度変化

        m1 = 6.0 + 5 logΔ + 10.0 log r

---------------------------------------------------------------------

軌道要素はM.P.E.C. 2017-E59に掲載されたものです。
光度グラフはComet for Windowsで作成したものです。

---------------------------------------------------------------------

Copyright(C) Seiichi Yoshida (comet@aerith.net). All rights reserved.